This is the latest recevied weather packets stored in our database for station/object AB1AU. If no packets are shown the sender has not sent any weather packets the latest 10 day(s).
| Time | Temp. | Humidity | Pressure | Rain* | Wind** | Luminosity | Snow |
|---|---|---|---|---|---|---|---|
| 1777899218 | 10° C | 52% | 1008.4 hPa | 0 mm | - | 124 W/m² | - |
| 1777898915 | 9.44° C | 54% | 1008.6 hPa | 0 mm | - | 93 W/m² | - |
| 1777898612 | 9.44° C | 57% | 1008.5 hPa | 0 mm | - | 73 W/m² | - |
| 1777898309 | 9.44° C | 56% | 1008.6 hPa | 0 mm | - | 79 W/m² | - |
| 1777898007 | 10° C | 56% | 1008.5 hPa | 0 mm | - | 111 W/m² | - |
| 1777897703 | 9.44° C | 56% | 1008.5 hPa | 0 mm | - | 149 W/m² | - |
| 1777897400 | 10° C | 56% | 1008.7 hPa | 0 mm | - | 168 W/m² | - |
| 1777897095 | 8.89° C | 58% | 1008.5 hPa | 0 mm | - | 187 W/m² | - |
| 1777896792 | 8.89° C | 59% | 1008.5 hPa | 0 mm | - | 342 W/m² | - |
| 1777896489 | 8.89° C | 62% | 1008.5 hPa | 0 mm | - | 289 W/m² | - |
| 1777896186 | 7.78° C | 63% | 1008.7 hPa | 0 mm | - | 262 W/m² | - |
| 1777895884 | 7.78° C | 65% | 1008.6 hPa | 0 mm | - | 251 W/m² | - |
| 1777895582 | 6.67° C | 67% | 1008.6 hPa | 0 mm | - | 235 W/m² | - |
| 1777895279 | 6.11° C | 69% | 1008.6 hPa | 0 mm | - | 222 W/m² | - |
| 1777894977 | 5.56° C | 71% | 1008.7 hPa | 0 mm | - | 178 W/m² | - |
| 1777894674 | 5.56° C | 71% | 1008.7 hPa | 0 mm | - | 49 W/m² | - |
| 1777894370 | 5.56° C | 72% | 1008.8 hPa | 0 mm | - | 51 W/m² | - |
| 1777894068 | 5.56° C | 70% | 1008.7 hPa | 0 mm | - | 63 W/m² | - |
| 1777893764 | 5.56° C | 73% | 1008.7 hPa | 0 mm | - | 67 W/m² | - |
| 1777893461 | 5.56° C | 75% | 1008.7 hPa | 0 mm | - | 82 W/m² | - |
| 1777893158 | 4.44° C | 78% | 1008.8 hPa | 0 mm | - | 158 W/m² | - |
| 1777892854 | 4.44° C | 79% | 1008.8 hPa | 0 mm | - | 73 W/m² | - |
| 1777892550 | 3.89° C | 82% | 1008.7 hPa | 0 mm | - | 84 W/m² | - |
| 1777892246 | 3.33° C | 84% | 1008.8 hPa | 0 mm | - | 105 W/m² | - |
| 1777891943 | 3.33° C | 85% | 1008.7 hPa | 0 mm | - | 58 W/m² | - |
* Rain latest hour (hover to see other rain measurements)
** Current wind speed in m/s (hover to see current wind gust speed)